Temp
66 67 69 70 69 69 70 70 71 70 69 69 71 71 70 71 71 68 68 68 69 69 69 69 69 68 68 68 67 67 67 67 67 67 65 65 64 65 63 64 64 65
64 64 66 68 69 69 70 70 71 71 71 71 71 70 72 72 69 69 69 69 69 68 69 69 68 68 68 67 67 66 67 67 66 66 66 64 64 64 64 64 64 65
64 64 65 65 66 67 69 70 70 71 72 71 71 71 71 71 71 70 69 70 70 69 69 69 69 68 67 67 66 66 66 66 65 66 65 65 65 65 65 64 64 64
63 64 64 64 64 65 66 67 68 69 70 70 70 70 70 69 70 69 69 67 70 70 70 70 69 69 68 67 66 66 66 66 66 66 65 65 65 65 65 65 64 64
61 63 64 64 64 64 65 65 65 66 67 68 69 69 69 69 69 68 67 66 66 68 70 70 70 69 69 67 66 65 65 65 66 66 65 64 64 64 64 64 64 63
59 61 62 63 65 64 63 63 64 65 66 65 66 67 68 67 65 65 66 65 64 66 67 69 70 70 69 68 67 65 65 64 66 65 64 64 63 64 63 63 63 62
56 57 59 61 62 64 64 65 64 62 65 67 67 67 66 65 64 66 66 66 66 65 65 67 68 69 70 68 67 66 65 65 65 65 63 63 63 63 63 63 63 62
54 55 57 58 59 61 62 64 65 66 67 66 65 68 68 68 66 65 64 66 66 66 66 67 67 69 69 68 66 65 65 65 64 64 63 62 63 62 63 63 63 62
53 54 54 55 56 57 59 61 63 65 66 65 66 67 68 68 68 67 66 66 66 66 67 67 67 67 68 67 66 66 65 64 63 63 62 62 61 61 62 62 61 61
52 53 53 53 53 55 56 58 60 62 64 64 65 66 66 67 67 67 67 67 66 67 68 67 66 66 66 67 67 66 65 64 64 63 63 62 62 62 62 62 61 60
51 52 51 51 52 53 53 55 56 58 60 62 64 64 66 67 67 66 66 67 66 67 66 66 65 66 66 67 67 66 66 65 64 64 63 62 62 63 57 62 61 60
49 50 50 50 50 51 52 53 54 55 57 59 61 62 64 65 66 66 65 65 66 67 66 66 67 67 67 67 66 66 65 65 65 64 63 62 62 62 62 62 61 61
48 48 49 49 50 50 51 51 51 52 53 55 58 60 61 62 63 64 65 64 64 65 65 66 66 66 66 66 66 65 64 64 64 64 63 62 62 62 62 63 62 62
48 48 49 49 50 50 51 51 51 51 51 53 53 55 58 59 61 62 63 63 63 64 65 65 65 65 65 66 66 65 64 63 63 63 62 62 61 61 62 62 62 62
48 48 49 49 49 49 49 50 50 50 49 49 50 52 53 56 59 61 61 61 60 60 62 62 62 63 63 64 64 64 64 63 62 61 61 60 60 59 60 60 60 61
47 48 48 49 49 48 48 49 49 49 48 47 48 49 51 53 55 57 59 60 59 59 59 60 60 61 54 50 52 62 63 62 61 60 60 59 58 58 57 58 59 60
47 47 47 47 48 48 48 48 48 48 48 47 47 47 48 49 50 52 55 57 58 58 57 57 58 58 50 49 49 50 58 60 59 58 59 58 57 56 56 55 56 57
46 46 46 46 47 47 47 47 47 47 47 48 47 47 48 49 49 49 51 53 55 56 56 56 57 49 48 47 47 48 48 58 59 58 57 57 56 56 55 55 54 54
46 46 46 46 46 46 46 46 46 46 46 47 47 48 47 47 48 49 49 51 52 52 53 54 55 49 47 46 46 46 46 50 58 58 56 56 55 55 54 54 53 52
45 45 44 45 45 45 45 45 46 46 46 47 47 47 47 47 48 48 49 50 50 51 52 54 53 47 45 45 44 44 45 46 55 56 55 55 54 53 53 52 51 51
43 43 43 44 44 44 44 44 45 45 46 46 46 46 46 46 46 47 48 48 49 50 51 52 53 46 44 44 44 44 44 44 53 53 52 52 52 51 50 50 50 50
43 42 42 42 43 43 43 43 44 44 44 45 45 46 47 47 47 47 46 47 48 49 49 49 52 44 42 42 43 43 43 46 50 50 49 49 48 48 48 49 49 49
44 42 41 41 41 41 41 41 42 42 43 45 44 45 45 46 47 48 48 48 48 48 48 49 51 44 40 41 41 42 43 47 48 49 48 48 48 47 47 48 48 49
43 42 41 40 40 39 39 40 41 42 42 43 43 43 43 45 46 46 47 48 47 47 47 47 49 43 38 40 41 41 43 47 48 49 48 48 47 46 47 47 46 40
42 41 41 40 39 39 39 39 40 40 40 41 42 43 43 45 45 45 46 47 47 45 39 42 46 43 37 39 40 41 43 48 49 49 48 47 46 44 44 44 44 39
41 40 40 40 40 39 39 39 39 39 39 39 40 41 42 43 44 44 44 45 46 43 41 41 42 45 40 38 39 40 41 47 49 49 48 47 45 43 41 41 42 42
MSLP
1010.49 1010.37 1010.21 1010.09 1009.97 1009.97 1010.01 1010.05 1009.97 1010.09 1010.01 1009.97 1009.93 1009.73 1009.81 1009.77 1010.17 1010.53 1010.77 1011.05 1011.13 1011.17 1011.25 1011.45 1011.57 1011.77 1011.85 1012.05 1012.29 1012.49 1012.57 1012.65 1012.81 1012.93 1013.09 1013.29 1013.45 1013.53 1013.73 1013.81 1013.89 1013.89
1010.21 1010.25 1010.17 1010.01 1009.77 1009.65 1009.61 1009.57 1009.61 1009.53 1009.45 1009.49 1009.37 1009.45 1009.29 1009.41 1009.61 1009.93 1010.21 1010.41 1010.81 1010.93 1010.93 1011.09 1011.25 1011.45 1011.53 1011.69 1011.85 1012.09 1012.13 1012.25 1012.41 1012.45 1012.61 1012.81 1012.97 1013.09 1013.17 1013.29 1013.41 1013.45
1009.81 1009.73 1009.73 1009.81 1009.69 1009.61 1009.53 1009.45 1009.45 1009.25 1009.13 1009.05 1009.05 1008.89 1009.01 1008.97 1009.09 1009.29 1009.53 1009.81 1010.21 1010.57 1010.65 1010.61 1010.85 1011.09 1011.25 1011.33 1011.49 1011.65 1011.77 1011.77 1011.93 1011.97 1012.21 1012.29 1012.41 1012.57 1012.61 1012.81 1012.93 1013.01
1009.97 1009.77 1009.57 1009.37 1009.33 1009.37 1009.37 1009.41 1009.25 1009.05 1008.85 1008.73 1008.61 1008.57 1008.65 1008.77 1008.81 1008.89 1009.09 1009.41 1009.77 1010.01 1010.09 1010.21 1010.33 1010.53 1010.73 1010.89 1011.09 1011.21 1011.21 1011.25 1011.25 1011.49 1011.73 1011.81 1011.81 1011.93 1012.13 1012.25 1012.41 1012.57
1010.69 1010.05 1009.65 1009.45 1009.21 1009.13 1009.21 1009.05 1008.85 1008.69 1008.73 1008.53 1008.37 1008.45 1008.53 1008.53 1008.61 1008.61 1008.73 1009.01 1009.33 1009.61 1009.53 1009.61 1009.81 1010.01 1010.09 1010.41 1010.65 1010.81 1010.77 1010.77 1010.81 1010.97 1011.17 1011.25 1011.29 1011.49 1011.61 1011.81 1011.93 1012.09
1011.45 1010.97 1010.29 1009.77 1009.37 1009.17 1009.13 1009.17 1008.89 1008.57 1008.45 1008.45 1008.25 1008.17 1008.09 1008.25 1008.25 1008.17 1008.21 1008.57 1008.77 1008.97 1009.13 1009.21 1009.33 1009.45 1009.57 1009.73 1010.09 1010.25 1010.25 1010.25 1010.17 1010.37 1010.53 1010.69 1010.81 1010.93 1011.13 1011.25 1011.41 1011.57
1012.13 1011.53 1010.97 1010.37 1009.77 1009.29 1009.01 1008.73 1008.65 1008.61 1008.33 1008.01 1008.01 1007.97 1007.97 1008.09 1007.97 1007.61 1007.61 1007.73 1007.97 1008.29 1008.81 1008.93 1008.85 1008.85 1008.85 1009.17 1009.49 1009.61 1009.65 1009.57 1009.65 1009.81 1009.97 1010.09 1010.25 1010.41 1010.61 1010.81 1010.93 1011.05
1012.53 1012.01 1011.45 1010.89 1010.37 1009.77 1009.25 1008.73 1008.41 1008.21 1007.97 1007.85 1007.77 1007.45 1007.49 1007.45 1007.09 1007.09 1007.17 1007.37 1007.69 1007.97 1008.45 1008.49 1008.37 1008.21 1008.21 1008.61 1008.93 1009.09 1009.13 1009.05 1009.17 1009.29 1009.45 1009.57 1009.73 1009.93 1010.09 1010.25 1010.37 1010.57
1012.73 1012.29 1011.89 1011.41 1010.93 1010.41 1009.81 1009.13 1008.57 1008.13 1007.81 1007.73 1007.45 1007.13 1007.09 1007.09 1006.89 1006.81 1007.01 1007.25 1007.57 1007.77 1007.97 1007.97 1007.77 1007.69 1007.69 1007.97 1008.29 1008.53 1008.57 1008.57 1008.65 1008.77 1008.93 1009.05 1009.21 1009.29 1009.53 1009.69 1009.97 1010.05
1012.89 1012.41 1012.01 1011.65 1011.25 1010.69 1010.21 1009.69 1009.13 1008.49 1007.93 1007.57 1007.17 1006.93 1006.89 1006.69 1006.61 1006.65 1006.81 1007.05 1007.17 1007.21 1007.25 1007.17 1007.17 1007.13 1007.17 1007.37 1007.57 1007.89 1008.05 1008.09 1008.17 1008.25 1008.29 1008.41 1008.57 1008.77 1008.97 1009.13 1009.25 1009.49
1012.93 1012.53 1012.13 1011.77 1011.37 1010.89 1010.37 1009.85 1009.33 1008.77 1008.17 1007.65 1007.13 1006.81 1006.53 1006.41 1006.37 1006.41 1006.57 1006.61 1006.57 1006.53 1006.57 1006.57 1006.53 1006.57 1006.73 1006.89 1007.01 1007.29 1007.41 1007.49 1007.61 1007.73 1007.81 1007.89 1007.97 1008.09 1008.25 1008.45 1008.65 1008.81
1013.05 1012.69 1012.37 1011.97 1011.57 1011.09 1010.57 1010.13 1009.61 1009.05 1008.49 1007.85 1007.37 1006.81 1006.41 1006.17 1006.05 1005.89 1005.97 1005.93 1005.89 1005.89 1005.93 1005.93 1005.93 1006.01 1006.09 1006.17 1006.41 1006.69 1006.85 1006.97 1007.05 1007.13 1007.25 1007.41 1007.53 1007.65 1007.81 1007.97 1008.13 1008.29
1013.29 1012.89 1012.49 1012.09 1011.65 1011.25 1010.81 1010.25 1009.77 1009.33 1008.81 1008.17 1007.57 1007.13 1006.61 1006.13 1005.81 1005.65 1005.49 1005.53 1005.49 1005.49 1005.45 1005.41 1005.49 1005.61 1005.65 1005.65 1005.85 1006.13 1006.33 1006.49 1006.57 1006.61 1006.73 1006.89 1007.01 1007.17 1007.33 1007.49 1007.69 1007.89
1013.33 1012.97 1012.45 1012.01 1011.65 1011.17 1010.69 1010.17 1009.73 1009.21 1008.77 1008.21 1007.77 1007.29 1006.77 1006.29 1005.93 1005.65 1005.33 1005.25 1005.17 1005.09 1005.01 1005.01 1005.13 1005.25 1005.21 1005.21 1005.37 1005.53 1005.73 1005.93 1006.01 1006.13 1006.21 1006.33 1006.49 1006.69 1006.89 1007.05 1007.17 1007.37
1013.25 1012.81 1012.45 1011.97 1011.49 1010.97 1010.53 1010.09 1009.65 1009.25 1008.89 1008.45 1008.01 1007.45 1006.93 1006.53 1006.09 1005.65 1005.37 1005.09 1004.97 1004.89 1004.85 1004.81 1004.81 1004.81 1004.81 1004.89 1004.97 1005.05 1005.17 1005.37 1005.57 1005.69 1005.85 1006.01 1006.17 1006.37 1006.49 1006.65 1006.81 1006.97
1013.29 1012.89 1012.45 1012.01 1011.57 1011.05 1010.57 1010.13 1009.69 1009.29 1008.93 1008.53 1008.05 1007.61 1007.09 1006.57 1006.17 1005.77 1005.37 1004.97 1004.77 1004.73 1004.69 1004.65 1004.53 1004.37 1004.33 1004.53 1004.65 1004.65 1004.77 1004.97 1005.17 1005.29 1005.41 1005.57 1005.77 1005.97 1006.13 1006.29 1006.37 1006.53
1013.37 1012.85 1012.41 1012.05 1011.65 1011.17 1010.73 1010.29 1009.85 1009.41 1008.97 1008.53 1008.13 1007.77 1007.33 1006.81 1006.45 1005.93 1005.41 1005.01 1004.73 1004.53 1004.49 1004.37 1004.13 1003.93 1004.01 1004.29 1004.45 1004.45 1004.45 1004.57 1004.69 1004.81 1004.93 1005.13 1005.33 1005.49 1005.65 1005.89 1006.05 1006.17
1013.41 1012.89 1012.53 1012.05 1011.61 1011.21 1010.77 1010.33 1009.81 1009.29 1008.81 1008.33 1007.93 1007.61 1007.33 1007.01 1006.73 1006.29 1005.89 1005.45 1004.97 1004.53 1004.21 1003.97 1003.81 1003.61 1003.81 1004.01 1004.09 1004.13 1004.25 1004.17 1004.25 1004.37 1004.49 1004.65 1004.85 1005.05 1005.25 1005.57 1005.85 1006.05
1013.61 1013.05 1012.49 1012.09 1011.73 1011.29 1010.77 1010.29 1009.77 1009.25 1008.69 1008.21 1007.81 1007.53 1007.33 1007.09 1006.69 1006.33 1005.93 1005.49 1005.09 1004.61 1004.17 1003.77 1003.61 1003.45 1003.65 1003.73 1003.85 1004.01 1004.17 1004.21 1004.01 1004.05 1004.13 1004.29 1004.45 1004.73 1004.97 1005.25 1005.61 1005.93
1013.61 1013.21 1012.69 1012.17 1011.69 1011.29 1010.85 1010.25 1009.69 1009.21 1008.69 1008.17 1007.61 1007.09 1006.85 1006.61 1006.41 1006.17 1005.77 1005.37 1004.97 1004.53 1004.05 1003.65 1003.37 1003.25 1003.45 1003.53 1003.65 1003.81 1003.93 1004.13 1003.93 1003.81 1003.85 1003.97 1004.17 1004.41 1004.69 1005.01 1005.33 1005.61
1013.33 1012.97 1012.65 1012.33 1011.85 1011.37 1010.81 1010.33 1009.81 1009.13 1008.61 1008.13 1007.65 1007.21 1006.89 1006.53 1006.17 1005.81 1005.45 1005.21 1004.85 1004.41 1003.97 1003.49 1002.97 1002.89 1003.13 1003.17 1003.25 1003.45 1003.65 1003.97 1003.85 1003.73 1003.73 1003.85 1004.01 1004.25 1004.53 1004.77 1005.09 1005.37
1013.09 1012.73 1012.37 1012.05 1011.81 1011.45 1011.05 1010.45 1009.85 1009.41 1008.85 1008.21 1007.65 1006.97 1006.49 1006.13 1005.73 1005.57 1005.33 1005.01 1004.61 1004.25 1003.89 1003.37 1002.85 1002.85 1003.01 1003.05 1003.09 1003.25 1003.49 1003.69 1003.57 1003.57 1003.61 1003.73 1003.93 1004.21 1004.49 1004.73 1005.01 1005.29
1012.97 1012.61 1012.21 1011.97 1011.65 1011.33 1010.93 1010.53 1010.01 1009.45 1008.97 1008.45 1007.77 1007.01 1006.53 1006.01 1005.61 1005.21 1004.93 1004.73 1004.45 1004.13 1003.85 1003.25 1002.73 1002.77 1002.97 1002.97 1002.97 1003.09 1003.37 1003.37 1003.37 1003.45 1003.57 1003.69 1003.85 1004.13 1004.41 1004.65 1004.89 1005.09
1013.01 1012.53 1012.13 1011.73 1011.49 1011.17 1010.69 1010.17 1009.89 1009.53 1009.13 1008.73 1008.25 1007.41 1006.57 1006.09 1005.69 1005.17 1004.81 1004.57 1004.37 1004.05 1003.77 1003.37 1002.69 1002.65 1002.93 1002.89 1002.89 1002.93 1002.97 1003.05 1003.21 1003.21 1003.33 1003.49 1003.73 1004.05 1004.21 1004.45 1004.65 1004.93
1013.01 1012.61 1012.17 1011.69 1011.21 1010.77 1010.45 1009.97 1009.49 1009.29 1008.93 1008.61 1008.09 1007.45 1006.73 1006.09 1005.65 1005.25 1004.65 1004.29 1004.17 1004.05 1003.77 1003.61 1003.01 1002.77 1002.97 1003.01 1002.97 1002.97 1003.05 1002.97 1003.01 1002.97 1003.05 1003.21 1003.45 1003.85 1004.09 1004.25 1004.53 1004.81
1012.89 1012.53 1012.05 1011.61 1011.09 1010.53 1010.13 1009.77 1009.37 1008.97 1008.65 1008.29 1007.81 1007.41 1006.77 1006.05 1005.61 1005.21 1004.77 1004.13 1003.85 1003.89 1003.73 1003.53 1003.29 1002.85 1002.93 1003.01 1002.97 1003.05 1003.09 1002.89 1002.69 1002.69 1002.65 1002.77 1003.09 1003.41 1003.85 1004.13 1004.33 1004.61
Wind_Speed
11 11 16 16 15 14 14 15 12 14 11 12 15 12 11 11 13 14 14 14 14 15 15 16 14 13 11 12 11 12 11 13 13 13 14 12 16 17 16 17 17 15
10 10 10 10 13 11 12 12 15 16 15 13 12 11 10 10 10 11 13 13 14 16 16 16 14 14 14 11 12 13 13 11 14 10 13 15 15 15 15 18 17 16
11 10 9 11 11 12 13 12 10 12 15 14 11 10 10 9 11 11 12 13 13 15 16 16 16 15 14 15 14 13 15 15 16 14 13 16 14 14 16 16 15 18
12 11 12 12 11 11 12 10 10 10 11 12 12 9 9 9 9 10 10 12 13 16 15 15 16 16 15 15 14 14 16 15 15 14 15 14 13 13 15 14 14 14
14 13 11 11 11 10 9 11 13 13 13 13 10 9 9 9 9 9 9 9 11 15 15 15 16 16 16 15 15 15 14 14 15 15 14 15 15 15 14 14 15 16
13 14 15 13 12 11 9 11 12 15 13 13 14 11 11 10 10 10 10 10 12 12 12 16 16 16 15 15 15 16 15 14 14 16 16 16 15 14 12 14 15 16
15 14 15 14 16 14 14 13 12 11 14 14 11 12 11 11 12 12 12 12 11 12 12 14 15 15 14 15 15 17 16 15 15 16 17 15 14 16 14 14 15 16
14 13 13 13 14 15 15 15 14 13 13 12 11 14 11 13 12 11 9 11 11 12 14 14 14 15 15 15 16 17 17 13 14 16 16 16 15 15 15 14 15 16
13 13 13 14 13 12 13 14 14 15 13 12 13 13 10 11 12 11 11 11 13 16 16 14 14 13 13 16 16 17 17 15 15 16 16 16 16 16 16 15 15 14
14 14 15 14 14 12 13 14 13 14 14 13 13 12 12 11 12 12 12 11 13 14 17 14 13 12 13 17 19 17 16 17 16 16 16 16 17 16 16 16 15 15
15 14 14 15 15 14 15 15 14 13 13 14 14 13 13 12 11 11 13 15 16 19 18 17 13 14 17 19 16 16 17 16 16 16 15 16 17 17 16 16 16 15
16 15 15 16 15 15 15 15 15 14 14 13 14 14 14 13 13 11 10 12 15 16 16 17 17 17 19 19 18 17 16 16 15 15 15 16 16 16 16 15 15 16
16 16 15 14 14 15 14 13 13 13 14 14 13 14 14 14 13 13 11 10 13 16 16 17 17 17 17 16 17 17 17 17 16 16 15 14 15 15 16 16 15 14
15 15 14 15 14 13 13 13 12 13 13 13 13 14 14 15 15 13 12 11 13 13 15 15 15 16 16 17 17 16 16 17 17 15 16 15 14 13 14 16 16 16
15 14 13 15 15 14 14 14 14 12 12 13 12 13 12 13 15 15 14 13 12 12 13 11 11 14 14 14 16 17 16 16 17 14 14 12 12 11 12 12 12 12
15 15 15 15 15 15 14 14 14 13 12 13 13 13 13 12 13 15 14 13 14 13 12 12 11 10 13 17 15 13 15 13 13 13 13 12 11 11 11 11 12 11
15 15 15 16 15 14 15 15 15 14 13 11 11 12 12 13 12 14 15 14 13 12 13 12 12 13 17 16 18 18 14 13 12 11 11 11 11 12 12 11 11 11
15 16 16 16 16 16 16 16 14 13 13 12 9 10 10 10 12 13 13 13 12 13 13 12 13 14 15 16 18 20 17 14 12 11 10 11 11 12 11 10 10 9
15 16 17 16 16 16 16 15 15 15 14 14 15 12 10 10 11 12 14 13 12 12 13 13 12 15 15 16 17 17 18 14 10 10 11 11 12 11 10 10 9 8
15 15 16 16 16 16 16 16 16 16 14 13 12 11 10 10 10 12 13 13 12 12 12 12 13 13 15 16 15 16 17 15 11 10 10 11 11 11 10 10 9 10
14 15 15 15 15 16 16 17 17 16 16 13 12 12 12 13 13 13 11 11 12 12 12 12 12 14 14 16 16 17 16 14 9 8 8 10 10 9 10 10 9 9
15 15 15 15 15 15 15 16 17 16 17 15 14 13 11 10 9 9 11 13 13 12 12 13 13 11 13 15 15 15 15 11 9 8 9 9 8 8 8 8 7 8
17 17 16 15 15 16 15 15 15 17 16 14 15 14 13 13 13 11 11 12 13 12 13 12 13 10 12 14 14 15 13 10 9 7 7 8 9 8 8 8 9 10
17 17 17 16 15 16 15 14 13 12 14 12 14 15 15 14 13 14 12 11 12 13 12 12 12 8 11 12 14 15 14 12 10 10 10 10 8 8 8 9 10 12
16 17 17 17 17 16 15 15 14 12 11 12 13 13 14 13 12 12 13 11 12 13 10 10 10 7 9 11 12 14 13 10 10 10 10 10 9 9 8 8 7 9
15 16 17 17 17 17 16 14 13 13 13 12 13 12 13 13 12 11 13 12 10 10 9 9 9 9 8 12 12 13 14 10 9 10 11 12 10 9 9 8 7 8
Wind_Direction
235 236 241 243 243 241 242 245 243 240 228 234 241 230 218 227 224 214 216 221 224 225 223 226 225 221 218 216 214 217 220 221 222 222 218 213 222 220 219 218 218 220
243 237 239 247 249 245 244 242 248 248 240 233 229 228 227 214 187 197 212 216 225 226 226 225 225 224 223 218 214 216 221 218 221 217 218 214 220 220 223 222 220 222
277 267 253 240 242 245 248 249 247 247 252 242 232 221 223 207 208 201 205 209 220 228 226 224 224 224 222 220 218 216 219 218 220 218 217 220 220 220 224 223 223 220
290 281 275 270 259 250 251 253 252 253 253 249 233 225 221 227 221 207 204 207 219 230 227 225 224 223 220 219 217 217 218 218 218 217 218 221 222 219 222 221 221 221
317 304 285 274 271 265 257 259 257 252 249 250 249 243 239 230 220 214 201 205 212 228 229 226 224 223 221 219 217 218 218 218 217 215 215 217 219 218 221 220 222 222
325 317 309 300 286 277 260 243 248 258 255 249 247 244 239 230 221 212 210 210 215 209 216 226 225 226 220 220 218 219 217 216 215 212 214 218 219 218 218 218 222 223
332 328 317 310 304 294 283 272 256 249 255 254 252 243 235 233 222 221 215 209 207 210 217 218 215 217 219 220 219 219 218 216 214 212 213 216 218 219 218 219 221 224
330 326 325 319 309 301 293 286 279 270 263 262 259 256 245 244 241 228 222 221 222 217 219 217 214 214 215 219 219 221 219 214 215 213 212 214 214 219 219 220 220 223
332 333 328 324 318 308 298 292 289 284 277 270 263 262 253 243 245 238 229 219 218 221 220 215 213 208 206 216 220 221 219 215 214 212 212 212 213 216 216 216 218 219
336 335 333 332 325 319 312 307 299 290 282 273 265 261 257 250 243 241 236 223 221 224 230 219 214 210 210 220 224 223 220 218 216 215 214 213 213 214 215 215 216 217
334 337 336 334 331 325 318 313 308 299 291 283 276 268 260 255 246 233 235 235 237 238 234 230 218 218 222 223 222 223 223 221 218 217 217 216 215 216 215 214 215 216
337 338 338 333 330 328 325 320 314 308 302 294 287 279 269 260 256 241 229 230 238 239 234 233 233 228 225 223 222 221 221 221 220 218 218 217 216 216 215 213 217 219
337 335 331 331 330 327 322 316 313 308 304 298 293 287 281 273 264 257 247 236 235 235 234 233 231 228 226 223 224 221 220 219 220 220 219 217 216 214 215 218 219 219
332 328 327 329 326 321 322 321 318 316 312 306 302 292 283 276 271 265 257 248 241 237 236 231 228 231 231 226 222 220 218 219 219 218 218 216 215 213 215 219 220 218
327 328 327 324 324 326 326 329 326 319 317 311 305 297 290 283 278 271 262 254 245 240 239 234 229 228 225 222 221 220 220 219 219 216 215 214 214 210 212 214 214 215
327 327 327 327 325 325 326 326 328 325 321 318 310 302 295 288 283 275 266 257 250 241 236 233 230 228 224 216 215 218 217 218 216 215 212 211 212 214 214 213 213 212
327 326 327 327 325 324 326 327 327 324 317 306 306 306 296 291 282 274 264 258 252 244 233 227 228 228 221 213 213 213 213 215 213 211 209 209 212 212 213 211 212 212
325 326 326 325 325 326 326 323 317 316 316 314 300 299 288 285 279 272 270 264 257 249 242 235 232 231 222 214 214 215 212 216 215 213 209 209 210 212 213 209 208 208
322 324 324 324 324 322 322 322 322 320 321 325 322 314 298 288 277 273 267 262 256 251 246 241 239 232 222 219 219 217 216 215 219 214 211 211 210 209 210 207 203 200
321 320 320 321 322 322 321 320 320 318 316 313 312 314 313 299 288 279 274 265 256 250 249 246 240 235 220 220 219 216 215 211 222 218 212 211 209 207 205 203 197 197
319 319 318 317 319 320 320 320 318 317 318 320 319 317 313 311 307 300 285 271 265 257 254 250 244 231 216 216 217 213 210 206 217 218 210 210 205 201 197 195 190 194
318 317 316 316 317 317 317 317 318 317 318 318 316 311 305 297 290 279 282 279 270 262 255 252 253 231 215 219 215 211 199 196 206 204 193 186 182 181 182 187 190 188
317 315 313 314 315 313 313 312 314 315 315 319 315 314 313 311 307 296 291 286 280 267 257 256 257 228 212 215 210 199 188 198 195 195 195 193 197 192 189 190 192 191
312 312 311 311 311 309 308 306 305 303 305 310 309 309 307 306 306 302 293 284 277 271 260 261 261 238 208 213 205 193 190 193 193 195 196 193 192 186 189 192 195 185
307 307 306 306 306 305 306 305 305 304 302 304 303 303 300 299 299 296 293 284 277 268 269 259 263 249 203 215 208 198 195 199 198 198 196 197 189 190 190 190 188 184
304 303 303 302 303 304 304 300 302 303 301 301 301 301 301 297 295 287 285 282 277 266 256 250 253 254 216 211 207 205 205 210 203 201 203 198 193 185 183 195 191 196